Weather History for Devils Lake, ND

Change the Weather History Date:

Thursday, March 14, 2013

  Actual Average Record
Temperature  
Mean Temperature 16 °F -  
Max Temperature 26 °F 32 °F 48 °F (2012)
Min Temperature 6 °F 16 °F -18 °F (1956)
Degree Days  
Heating Degree Days 49    
Moisture  
Dew Point 15 °F    
Average Humidity 93    
Maximum Humidity 100    
Minimum Humidity 73    
Precipitation  
Precipitation 0.00 in - - ()
Sea Level Pressure  
Sea Level Pressure 30.04 in    
Wind  
Wind Speed 5 mph (West)    
Max Wind Speed 10 mph    
Max Gust Speed -    
Visibility 7 miles    
Events      
Averages and records for this station are not official NWS values.
T = Trace of Precipitation, MM = Missing Value Source: NWS Daily Summary

Daily Weather History Graph

Daily Weather History Graph

Search for Another Location

Airport:

Trip Planner

Search our weather history database for the weather conditions in past years. The results will help you decide how hot, cold, wet, or windy it might be!

Date:

Astronomy

Mar. 14, 2013 Rise Set
Actual Time 7:50 AM CDT 7:40 PM CDT
Civil Twilight 7:19 AM CDT 8:11 PM CDT
Nautical Twilight 6:43 AM CDT 8:47 PM CDT
Astronomical Twilight 6:06 AM CDT 9:24 PM CDT
Moon 8:48 AM CDT (3/14) 11:16 PM CDT (3/14)
Length of Visible Light 12h 51m
Length of Day
11h 49m
Waxing Crescent, 9% of the Moon is Illuminated
Mar 14
Waxing Crescent
Mar 19
First Quarter
Mar 27
Full
Apr 2
Last Quarter
Apr 10
New

Hourly Weather History & Observations

Time (CDT) Temp. Windchill Dew Point Humidity Pressure Visibility Wind Dir Wind Speed Gust Speed Precip Events Conditions
7:15 AM 8.6 °F 2.0 °F 1.4 °F 73% 30.03 in 9.0 mi SW 3.5 mph - N/A   Clear
7:35 AM 6.8 °F -4.8 °F 6.8 °F 100% 30.04 in 10.0 mi West 6.9 mph - N/A   Clear
7:55 AM 10.4 °F -1.5 °F 10.4 °F 100% 30.04 in 6.0 mi SW 8.1 mph - N/A   Clear
8:15 AM 8.6 °F 0.1 °F 8.6 °F 100% 30.05 in 6.0 mi WSW 4.6 mph - N/A   Scattered Clouds
8:35 AM 8.6 °F 2.0 °F 8.6 °F 100% 30.05 in 1.0 mi WSW 3.5 mph - N/A   Overcast
8:55 AM 8.6 °F - 8.6 °F 100% 30.04 in 0.5 mi Calm Calm - N/A   Overcast
9:15 AM 8.6 °F - 8.6 °F 100% 30.03 in 1.0 mi Calm Calm - N/A   Mostly Cloudy
9:35 AM 10.4 °F - 10.4 °F 100% 30.04 in 1.2 mi Calm Calm - N/A   Scattered Clouds
9:55 AM 10.4 °F 0.8 °F 8.6 °F 92% 30.05 in 5.0 mi WNW 5.8 mph - N/A   Clear
10:15 AM 14.0 °F - 14.0 °F 100% 30.05 in 9.0 mi Calm Calm - N/A   Clear
10:35 AM 15.8 °F 6.1 °F 15.8 °F 100% 30.03 in 10.0 mi WSW 6.9 mph - N/A   Clear
10:55 AM 17.6 °F 10.7 °F 17.6 °F 100% 30.04 in 2.0 mi WSW 4.6 mph - N/A   Clear
11:15 AM 19.4 °F 14.3 °F 19.4 °F 100% 30.03 in 10.0 mi West 3.5 mph - N/A   Clear
12:15 PM 21.2 °F 13.6 °F 21.2 °F 100% 30.03 in 10.0 mi West 5.8 mph - N/A   Clear
12:35 PM 23.0 °F 13.9 °F 19.4 °F 86% 30.04 in 10.0 mi West 8.1 mph - N/A   Clear
12:55 PM 24.8 °F 16.1 °F 21.2 °F 86% 30.05 in 10.0 mi West 8.1 mph - N/A   Clear
1:15 PM 24.8 °F 16.1 °F 21.2 °F 86% 30.06 in 10.0 mi WNW 8.1 mph - N/A   Partly Cloudy
1:35 PM 24.8 °F 16.9 °F 21.2 °F 86% 30.06 in 10.0 mi NNW 6.9 mph - N/A   Scattered Clouds
1:55 PM 24.8 °F 16.9 °F 21.2 °F 86% 30.05 in 10.0 mi NW 6.9 mph - N/A   Partly Cloudy
2:15 PM 26.6 °F 16.8 °F 23.0 °F 86% 30.05 in 10.0 mi North 10.4 mph - N/A   Clear
2:35 PM 26.6 °F 17.5 °F 21.2 °F 80% 30.04 in 9.0 mi North 9.2 mph - N/A   Clear